Regional Weather Roundup
Issued by NWS

Home | Current Version | Previous Version | Graphics & Text | Print | Product List | Glossary Off
Versions: 1 2 3 4 5 6 7 8 9 10 11 12 13 14 15 16 17 18 19 20 21 22 23 24 25 26 27 28 29 30 31 32 33 34 35 36 37 38 39 40 41 42 43 44 45 46 47 48 49 50

000
ASUS43 KIND 030709
RWRIN

WEATHER ROUNDUP FOR INDIANA
NATIONAL WEATHER SERVICE INDIANAPOLIS IN
300 AM EDT FRI JUL 03 2015

NOTE: "FAIR" INDICATES FEW OR NO CLOUDS BELOW 12,000 FEET WITH NO
SIGNIFICANT WEATHER AND/OR OBSTRUCTIONS TO VISIBILITY.

* - STATION DOES NOT REPORT WEATHER SUCH AS PRECIPITATION OR FOG.

+ - STATION NOT QUALITY CONTROLLED BY THE NATIONAL WEATHER SERVICE.
    USE DATA WITH CAUTION...ESPECIALLY DEWPOINT AND RELATIVE
    HUMIDITY OBSERVATIONS.

INZ001>003-010>013-019-020-030800-
NORTHWEST INDIANA

CITY           SKY/WX    TMP DP  RH WIND       PRES   REMARKS
GARY /AIRPORT/ MOCLDY    61  59  93 NE3       29.97F
KNOX *+        MOCLDY    57  57 100 NE3       29.96F
LA PORTE +     PTCLDY    60  56  88 E5        29.98F
MICHIGAN CITY+ PTCLDY    52  52 100 CALM      29.98F
MONTICELLO +   CLOUDY    63  59  86 NE6       29.94S
RENSSELAER +   CLOUDY    61  59  94 NE6       29.95F
VALPARAISO     PTCLDY    57  54  89 CALM      29.97F

$$

LMZ046-743>745-030800-
SOUTHERN LAKE MICHIGAN

STATION/POSITION TIME  TEMP    WIND        PRES    WAVE
                       AIR SEA DIR/SP/G            HT
                 (UTC) (F)     (DEG/KT/KT) (MB)    (FT)
BURNS HARBOR     0700   61      70/  9/ 10 1015.6S
MICHIGAN CITY    0700   58      50/  7/  7   N/A
5NW MICH CITY    0700   60 62   90/  8/ 10   N/A     2

$$

INZ004-005-014>016-021>024-030800-
NORTH CENTRAL INDIANA

CITY           SKY/WX    TMP DP  RH WIND       PRES   REMARKS
GOSHEN         PTCLDY    58  54  86 CALM      29.98S
LOGANSPORT +   MOCLDY    61  52  72 NE3       29.96S
PERU/GRISSOM   PTCLDY    62  56  79 NE8       29.94F
ROCHESTER +    CLEAR     63  57  82 NE5       29.97S
SOUTH BEND     PTCLDY    58  54  86 CALM      29.99F
WARSAW +         N/A     55  54  94 E3        29.97F

$$

INZ006>009-017-018-025>027-030800-
NORTHEAST INDIANA

CITY           SKY/WX    TMP DP  RH WIND       PRES   REMARKS
ANGOLA *+        N/A     55  54  94 CALM      30.00S
AUBURN +       PTCLDY    55  52  88 CALM      30.00S
FORT WAYNE     MOCLDY    59  54  83 E6        29.98S
HUNTINGTON +   CLEAR     59  55  84 E3        29.97S

$$

INZ028-029-035-036-043>045-051>053-030800-
WEST CENTRAL INDIANA

CITY           SKY/WX    TMP DP  RH WIND       PRES   REMARKS
CRAWFORDSVL +  CLOUDY    64  56  75 NE6       29.92S
GREENCASTLE +  CLOUDY    68  59  73 NE6       29.91S
LAFAYETTE      CLOUDY    64  58  80 NE8       29.93S
TERRE HAUTE    CLOUDY    70  64  81 NE7       29.89F

$$

INZ030>032-037>040-046>048-054>057-064-065-030800-
CENTRAL INDIANA

CITY           SKY/WX    TMP DP  RH WIND       PRES   REMARKS
CP ATTERBURY + CLOUDY    68  63  83 NE3       29.90S
FRANKFORT +    MOCLDY    65  58  79 NE9       29.95S
GREENWOOD *+   CLOUDY    66  61  82 NE5       29.92S
INDIANAPOLIS   CLOUDY    69  58  67 NE15      29.89S
-EAGLE CREEK   CLOUDY    68  59  73 E7        29.91S
KOKOMO *+      PTCLDY    63  55  77 E8        29.94F
MARION +       PTCLDY    62  54  76 E9        29.95F
MT COMFORT *+  CLOUDY    64  55  72 NE9       29.92F
SHELBYVILLE    CLOUDY    70  62  76 NE10      29.89F
ZIONSVILLE +   MOCLDY    66  57  72 E6        29.93F

$$

INZ033-034-041-042-049-050-058-059-030800-
EAST CENTRAL INDIANA

CITY           SKY/WX    TMP DP  RH WIND       PRES   REMARKS
MUNCIE         MOCLDY    63  56  78 E7        29.94F

$$

INZ060-061-067>069-081>083-085>088-030800-
SOUTHWEST INDIANA

CITY           SKY/WX    TMP DP  RH WIND       PRES   REMARKS
EVANSVILLE     PTCLDY    72  69  90 N3        29.84F FOG
HUNTINGBURG *+ MOCLDY    70  66  88 N5        29.85F VSB 1
WASHINGTON +   PTCLDY    68  64  88 CALM      29.85F FOG

$$

INZ062-063-066-070>080-084-089>092-030800-
SOUTH CENTRAL AND SOUTHEAST INDIANA

CITY           SKY/WX    TMP DP  RH WIND       PRES   REMARKS
BLOOMINGTON    CLOUDY    71  66  84 NE6       29.88F
MADISON *+     CLOUDY    70  66  88 NE7       29.89F
NORTH VERNON + CLOUDY    70  70 100 CALM      29.89F
SEYMOUR +      CLOUDY    72  70  94 NE5       29.87F

$$



USA.gov is the U.S. government's official web portal to all federal, state and local government web resources and services.